Location: Newark
(52.3500°N, 175.9667°E)
Time: 14:39:47
(UTC+00:00)

ISS - Pass Details

Date: 06 March 2021
Orbit: 418 x 422 km, 51.6° (Epoch: 13 April)

Event Time Altitude Azimuth Distance (km) Brightness Sun altitude
Exits shadow 17:05:50 46° 251° (WSW) 576 -3.6 -16.6°
Maximum altitude 17:06:36 62° 195° (SSW) 474 -3.7 -16.5°
Drops below altitude 10° 17:09:56 10° 113° (ESE) 1,498 -0.1 -16.0°
Sets 17:12:02 0° 110° (ESE) 2,361 1.1 -15.7°
